This demonstration page uses our WeatherBlox Daily Observations layout. Learn more.

Hourly Observations for July 18, 2017

Temp ( °F °C ) Dew Point ( °F °C ) Humidity (%) Winds ( mph kmh ) Pressure ( in mb ) Visibility ( mi km ) Precip ( " mm )
12:15 am 00:15 Clear 73 23 72 22 94 94 Calm 30.06 1018 10 16.09344 0 0
12:35 am 00:35 Clear 73 23 72 22 94 94 Calm 30.06 1018 10 16.09344 0 0
12:55 am 00:55 Clear 73 23 72 22 94 94 Calm 30.06 1018 10 16.09344 0 0
1:15 am 01:15 Clear 73 23 72 22 94 94 Calm 30.06 1018 10 16.09344 0 0
1:35 am 01:35 Clear 73 23 72 22 94 94 Calm 30.06 1018 10 16.09344 0 0
1:55 am 01:55 Clear 73 23 72 22 94 94 Calm 30.03 1017 10 16.09344 0 0
2:15 am 02:15 Clear 73 23 73 23 100 100 NE 3 6 30.06 1018 10 16.09344 0 0
2:35 am 02:35 Clear 73 23 72 22 94 94 Calm 30.06 1018 10 16.09344 0 0
2:55 am 02:55 Clear 73 23 72 22 94 94 N 3 6 30.06 1018 10 16.09344 0 0
3:15 am 03:15 Clear 72 22 72 22 100 100 N 3 6 30.06 1018 10 16.09344 0 0
3:35 am 03:35 Clear 72 22 72 22 100 100 Calm 30.06 1018 10 16.09344 0 0
3:55 am 03:55 Clear 72 22 72 22 100 100 Calm 30.06 1018 10 16.09344 0 0
4:15 am 04:15 Clear 72 22 72 22 100 100 Calm 30.06 1018 10 16.09344 0 0
4:35 am 04:35 Partly Cloudy 72 22 72 22 100 100 Calm 30.06 1018 10 16.09344 0 0
4:55 am 04:55 Clear 72 22 72 22 100 100 Calm 30.06 1018 10 16.09344 0 0
5:15 am 05:15 Clear 72 22 72 22 100 100 Calm 30.06 1018 7 11.265408 0 0
5:55 am 05:55 Clear 70 21 70 21 100 100 Calm 30.09 1019 7 11.265408 0 0
6:15 am 06:15 Sunny 72 22 72 22 100 100 Calm 30.09 1019 10 16.09344 0 0
6:35 am 06:35 Sunny 72 22 72 22 100 100 Calm 30.09 1019 7 11.265408 0 0
6:55 am 06:55 Sunny 72 22 72 22 100 100 Calm 30.09 1019 10 16.09344 0 0
7:15 am 07:15 Sunny 73 23 72 22 94 94 Calm 30.09 1019 10 16.09344 0 0
7:35 am 07:35 Sunny 73 23 73 23 100 100 Calm 30.09 1019 10 16.09344 0 0
7:55 am 07:55 Sunny 77 25 72 22 83 83 Calm 30.09 1019 10 16.09344 0 0
8:15 am 08:15 Sunny 77 25 72 22 83 83 Calm 30.12 1020 10 16.09344 0 0
8:35 am 08:35 Sunny 77 25 73 23 89 89 Calm 30.12 1020 10 16.09344 0 0
8:55 am 08:55 Sunny 79 26 73 23 84 84 Calm 30.12 1020 10 16.09344 0 0
9:15 am 09:15 Sunny 79 26 72 22 79 79 Calm 30.12 1020 10 16.09344 0 0
9:35 am 09:35 Sunny 81 27 72 22 74 74 Calm 30.12 1020 10 16.09344 0 0
9:55 am 09:55 Sunny 82 28 73 23 74 74 Calm 30.12 1020 10 16.09344 0 0
10:15 am 10:15 Sunny 84 29 73 23 70 70 Calm 30.12 1020 10 16.09344 0 0
10:35 am 10:35 Sunny 86 30 73 23 66 66 Calm 30.12 1020 10 16.09344 0 0
10:55 am 10:55 Sunny 84 29 73 23 70 70 Calm 30.12 1020 10 16.09344 0 0
11:15 am 11:15 Sunny 86 30 73 23 66 66 Calm 30.12 1020 10 16.09344 0 0
11:35 am 11:35 Sunny 88 31 73 23 62 62 Calm 30.12 1020 10 16.09344 0 0
11:55 am 11:55 undefined N/A N/A N/A undefined N/A N/A N/A 0 0
12:15 pm 12:15 undefined N/A N/A N/A undefined N/A N/A N/A 0 0
12:35 pm 12:35 undefined N/A N/A N/A undefined N/A N/A N/A 0 0
12:55 pm 12:55 Partly Cloudy 90 32 75 24 63 63 SSW 3 6 30.06 1018 10 16.09344 0.03 0.762
1:15 pm 13:15 Partly Cloudy 90 32 73 23 59 59 SW 5 7 30.06 1018 10 16.09344 0 0
1:35 pm 13:35 Sunny 91 33 73 23 56 56 S 3 6 30.06 1018 10 16.09344 0 0
1:55 pm 13:55 Sunny 91 33 73 23 56 56 W 7 11 30.03 1017 10 16.09344 0 0
2:15 pm 14:15 Sunny 91 33 73 23 56 56 S 5 7 30.03 1017 10 16.09344 0 0
2:35 pm 14:35 Sunny 91 33 73 23 56 56 WSW 5 7 30.03 1017 10 16.09344 0 0
2:55 pm 14:55 Sunny 95 35 73 23 50 50 Calm 30.03 1017 10 16.09344 0 0
3:15 pm 15:15 Sunny 95 35 73 23 50 50 NNW 3 6 30.03 1017 10 16.09344 0 0
3:35 pm 15:35 Sunny 93 34 73 23 53 53 W 6 9 30.03 1017 10 16.09344 0 0
3:55 pm 15:55 Sunny 95 35 73 23 50 50 W 6 9 30.03 1017 10 16.09344 0 0
4:15 pm 16:15 Sunny 95 35 73 23 50 50 W 7 11 30.03 1017 10 16.09344 0 0
4:35 pm 16:35 Sunny 95 35 73 23 50 50 W 7 11 30.03 1017 10 16.09344 0 0
4:55 pm 16:55 Partly Cloudy 93 34 72 22 49 49 Calm 30.03 1017 10 16.09344 0 0
5:15 pm 17:15 Cloudy with Thunderstorms 88 31 72 22 59 59 SE 10 17 30.03 1017 10 16.09344 0 0
5:35 pm 17:35 Cloudy with Heavy Rain 81 27 72 22 74 74 SE 9 15 30.06 1018 1 1.609344 0.31 7.874
5:55 pm 17:55 Cloudy with Rain 82 28 73 23 74 74 SE 10 17 30.06 1018 5 8.04672 0.53 13.462
6:15 pm 18:15 Partly Cloudy 82 28 75 24 79 79 SE 9 15 30.06 1018 10 16.09344 0 0
6:35 pm 18:35 Sunny 82 28 73 23 74 74 SE 9 15 30.06 1018 10 16.09344 0 0
6:55 pm 18:55 Partly Cloudy 82 28 72 22 70 70 ESE 7 11 30.06 1018 10 16.09344 0 0
7:15 pm 19:15 Sunny 84 29 73 23 70 70 Calm 30.06 1018 10 16.09344 0 0
7:35 pm 19:35 Sunny 81 27 73 23 79 79 E 3 6 30.06 1018 10 16.09344 0 0
7:55 pm 19:55 Partly Cloudy 82 28 73 23 74 74 SE 6 9 30.09 1019 10 16.09344 0 0
8:15 pm 20:15 Partly Cloudy 81 27 73 23 79 79 SE 6 9 30.09 1019 10 16.09344 0 0
8:35 pm 20:35 Partly Cloudy with Nearby Thunderstorms 81 27 73 23 79 79 Calm 30.09 1019 10 16.09344 0 0
8:55 pm 20:55 Partly Cloudy 81 27 73 23 79 79 Calm 30.09 1019 10 16.09344 0 0
9:15 pm 21:15 Partly Cloudy with Nearby Thunderstorms 81 27 73 23 79 79 WSW 5 7 30.09 1019 10 16.09344 0 0
9:35 pm 21:35 Mostly Cloudy 81 27 73 23 79 79 W 7 11 30.09 1019 10 16.09344 0 0
9:55 pm 21:55 Partly Cloudy 81 27 73 23 79 79 Calm 30.09 1019 10 16.09344 0 0
10:15 pm 22:15 Clear 79 26 73 23 84 84 W 6 9 30.09 1019 10 16.09344 0 0
10:35 pm 22:35 Clear 79 26 73 23 84 84 SSW 5 7 30.09 1019 10 16.09344 0 0
10:55 pm 22:55 Clear 79 26 73 23 84 84 Calm 30.09 1019 10 16.09344 0 0
11:15 pm 23:15 Clear 77 25 73 23 89 89 Calm 30.09 1019 10 16.09344 0 0
11:35 pm 23:35 Clear 79 26 73 23 84 84 Calm 30.09 1019 10 16.09344 0 0
11:55 pm 23:55 Clear 77 25 73 23 89 89 Calm 30.09 1019 10 16.09344 0 0

Powered by AerisWeather